Weather in Brodokalmak

Russia / Chelyabinsk Oblast     55°34′23″N   62°04′27″E
temp.,
°C
wind,
m/s
gust,
m/s
humid.,
%
clouds,
%
prec.,
mm/h
press.,
hPa
HPBL,
m
24 june, thu
thu2423:00+12wnw11720 0.0 101811
02:00+10n46765 0.0 101993
05:00+8nne34785 0.0 102065
08:00+14n226522 0.0 1020334
11:00+18n3450100 0.0 10201156
14:00+20nnw344654 0.0 10191531
17:00+21w1346100 0.0 10171248
20:00+18s4666100 0.0 1016105
25 june, fri
fri2523:00+16sw4116797 0.0 1015193
02:00+15w3867100 0.0 1013155
05:00+14nw3796100 1.8 1013146
08:00+16w3598100 2.7 1012168
11:00+19wnw348676 3.1 1012541
14:00+22nne227276 0.1 1011916
17:00+24n226719 0.7 10111030
20:00+22ne11805 0.8 101116
26 june, sat
sat2623:00+18sse1184100 0.8 101111
02:00+17sse2289100 0.0 101122
05:00+16s3390100 0.0 101140
08:00+19s3482100 0.0 1011192
11:00+24s4566100 0.0 1010850
14:00+26ssw455927 0.0 10091349
17:00+25ssw47685 0.1 1006356
20:00+15e3494100 19.4 100878
27 june, sun
sun2723:00+16wnw22910 20.5 100724
02:00+16nw47950 0.0 1007119
05:00+17nnw389899 0.0 1008187
08:00+18n6892100 0.0 1010527
11:00+22n457154 0.0 1010825
14:00+23nnw356425 0.1 10101307
17:00+24n3361100 0.1 10101230
20:00+20nne47843 0.6 1011234
28 june, mon
mon2823:00+16nne35910 0.6 101395
02:00+14nne34940 0.0 101455
05:00+13n359710 0.0 1015138
08:00+16nne478326 0.0 1016655
11:00+19nne456546 0.0 10161239
14:00+21nne455990 0.1 10171489
17:00+20ene236698 0.1 1017748
20:00+19e22740 0.0 101753